VIV773 MMTJ-MMMY

Flight info

Callsign VIV773
Flight time 2h 14m
Altitude 38000
Route TEVIR2B TEVIR DCT URSEV DCT MIDRA DCT CUU UJ2 NOTAL UJ45 URTUS DCT TASNA DCT 2550N10013W DCT MTY
Aircraft A20N/M-SDE2E3FGHIRWXY/LB1

Departure

Time 2026-04-25 04:16
Airport General Abelardo L. Rodriguez International Airport (MMTJ)

Arrival

Time 2026-04-25 06:30
Airport Monterrey International Airport (MMMY)
Time Latitude Longitude Altitude Speed Heading
2026-04-25 03:55 32.54469 -116.97415 470 ft 0 kts 290°
2026-04-25 03:58 32.54468 -116.97415 470 ft 0 kts 290°
2026-04-25 04:07 32.54468 -116.97414 461 ft 2 kts 290°
2026-04-25 04:08 32.54460 -116.97386 466 ft 4 kts 287°
2026-04-25 04:08 32.54453 -116.97355 466 ft 4 kts 277°
2026-04-25 04:08 32.54454 -116.97325 469 ft 4 kts 240°
2026-04-25 04:08 32.54461 -116.97314 468 ft 1 kts 202°
2026-04-25 04:10 32.54455 -116.97317 467 ft 3 kts 198°
2026-04-25 04:11 32.54384 -116.97372 470 ft 9 kts 237°
2026-04-25 04:11 32.54337 -116.97403 470 ft 3 kts 149°
2026-04-25 04:11 32.54325 -116.97372 470 ft 7 kts 107°
2026-04-25 04:12 32.54312 -116.97276 466 ft 17 kts 98°
2026-04-25 04:12 32.54289 -116.97102 469 ft 24 kts 99°
2026-04-25 04:12 32.54263 -116.96904 469 ft 22 kts 98°
2026-04-25 04:12 32.54238 -116.96711 468 ft 25 kts 99°
2026-04-25 04:13 32.54211 -116.96516 466 ft 24 kts 99°
2026-04-25 04:13 32.54185 -116.96315 470 ft 26 kts 99°
2026-04-25 04:13 32.54168 -116.96189 468 ft 21 kts 99°
2026-04-25 04:13 32.54143 -116.96012 470 ft 23 kts 99°
2026-04-25 04:14 32.54117 -116.95813 470 ft 24 kts 99°
2026-04-25 04:14 32.54104 -116.95716 470 ft 12 kts 99°
2026-04-25 04:14 32.54089 -116.95601 470 ft 16 kts 99°
2026-04-25 04:14 32.54070 -116.95464 470 ft 16 kts 102°
2026-04-25 04:15 32.53987 -116.95433 470 ft 14 kts 188°
2026-04-25 04:15 32.53906 -116.95468 470 ft 11 kts 246°
2026-04-25 04:15 32.53924 -116.95630 467 ft 53 kts 278°
2026-04-25 04:15 32.54027 -116.96420 466 ft 136 kts 277°
2026-04-25 04:16 32.54178 -116.97647 1083 ft 152 kts 278°
2026-04-25 04:16 32.54188 -116.98939 1922 ft 169 kts 255°
2026-04-25 04:16 32.53642 -117.00252 2671 ft 185 kts 237°
2026-04-25 04:16 32.53025 -117.01648 3401 ft 199 kts 249°
2026-04-25 04:17 32.52619 -117.03231 4256 ft 201 kts 256°
2026-04-25 04:17 32.52321 -117.04847 5219 ft 201 kts 259°
2026-04-25 04:17 32.52053 -117.06468 6110 ft 201 kts 259°
2026-04-25 04:17 32.51693 -117.08071 6969 ft 203 kts 245°
2026-04-25 04:18 32.50830 -117.09405 7809 ft 208 kts 223°
2026-04-25 04:18 32.49507 -117.10157 8650 ft 219 kts 196°
2026-04-25 04:18 32.47953 -117.10007 9471 ft 236 kts 165°
2026-04-25 04:18 32.46586 -117.08848 10210 ft 253 kts 133°
2026-04-25 04:19 32.45693 -117.06996 10848 ft 268 kts 118°
2026-04-25 04:19 32.44930 -117.04886 11197 ft 292 kts 115°
2026-04-25 04:19 32.44122 -117.02562 11559 ft 317 kts 116°
2026-04-25 04:19 32.43234 -117.00101 11954 ft 341 kts 116°
2026-04-25 04:20 32.42240 -116.97445 12307 ft 365 kts 117°
2026-04-25 04:20 32.41167 -116.94647 12857 ft 379 kts 117°
2026-04-25 04:20 32.40066 -116.91792 13730 ft 384 kts 118°
2026-04-25 04:20 32.38945 -116.88894 14511 ft 389 kts 118°
2026-04-25 04:21 32.37806 -116.85963 15247 ft 395 kts 118°
2026-04-25 04:21 32.36651 -116.82999 15972 ft 400 kts 118°
2026-04-25 04:21 32.35476 -116.79982 16670 ft 406 kts 118°
2026-04-25 04:21 32.34262 -116.76942 17380 ft 411 kts 121°
2026-04-25 04:22 32.32754 -116.74063 18071 ft 413 kts 128°
2026-04-25 04:22 32.31109 -116.71249 18700 ft 418 kts 128°
2026-04-25 04:22 32.29460 -116.68408 19393 ft 421 kts 128°
2026-04-25 04:22 32.27802 -116.65544 20049 ft 423 kts 128°
2026-04-25 04:23 32.26133 -116.62657 20659 ft 427 kts 128°
2026-04-25 04:23 32.24443 -116.59742 21233 ft 433 kts 129°
2026-04-25 04:23 32.22734 -116.56797 21869 ft 436 kts 128°
2026-04-25 04:23 32.21009 -116.53848 22516 ft 438 kts 129°
2026-04-25 04:24 32.19410 -116.50747 23060 ft 447 kts 120°
2026-04-25 04:24 32.18074 -116.47405 23651 ft 452 kts 118°
2026-04-25 04:24 32.16734 -116.44029 24137 ft 457 kts 118°
2026-04-25 04:24 32.15372 -116.40623 24607 ft 461 kts 119°
2026-04-25 04:25 32.13990 -116.37186 25071 ft 466 kts 119°
2026-04-25 04:25 32.12594 -116.33722 25543 ft 470 kts 119°
2026-04-25 04:25 32.11177 -116.30214 26000 ft 474 kts 119°
2026-04-25 04:25 32.09751 -116.26683 26421 ft 479 kts 120°
2026-04-25 04:26 32.08309 -116.23123 26864 ft 483 kts 120°
2026-04-25 04:26 32.06858 -116.19540 27307 ft 487 kts 120°
2026-04-25 04:26 32.05394 -116.15927 27725 ft 491 kts 120°
2026-04-25 04:26 32.03917 -116.12284 28111 ft 494 kts 120°
2026-04-25 04:27 32.02433 -116.08630 28485 ft 499 kts 120°
2026-04-25 04:27 32.00928 -116.04927 28891 ft 502 kts 120°
2026-04-25 04:27 31.99414 -116.01203 29226 ft 506 kts 120°
2026-04-25 04:27 31.97887 -115.97453 29589 ft 509 kts 120°
2026-04-25 04:28 31.96347 -115.93677 29964 ft 514 kts 121°
2026-04-25 04:28 31.94805 -115.89901 30171 ft 519 kts 121°
2026-04-25 04:28 31.93241 -115.86072 30548 ft 520 kts 121°
2026-04-25 04:28 31.91668 -115.82226 30900 ft 522 kts 121°
2026-04-25 04:29 31.89950 -115.78476 31204 ft 518 kts 128°
2026-04-25 04:29 31.87977 -115.74943 31580 ft 517 kts 130°
2026-04-25 04:29 31.85990 -115.71401 31915 ft 519 kts 130°
2026-04-25 04:29 31.84005 -115.67858 32293 ft 519 kts 130°
2026-04-25 04:30 31.82023 -115.64309 32686 ft 518 kts 130°
2026-04-25 04:30 31.80050 -115.60778 33067 ft 517 kts 130°
2026-04-25 04:30 31.78072 -115.57236 33473 ft 517 kts 130°
2026-04-25 04:30 31.76099 -115.53710 33877 ft 515 kts 130°
2026-04-25 04:31 31.74127 -115.50194 34177 ft 515 kts 131°
2026-04-25 04:31 31.72153 -115.46680 34519 ft 515 kts 131°
2026-04-25 04:31 31.70177 -115.43170 34846 ft 514 kts 131°
2026-04-25 04:31 31.68199 -115.39665 35153 ft 515 kts 131°
2026-04-25 04:32 31.66223 -115.36159 35391 ft 515 kts 131°
2026-04-25 04:32 31.64391 -115.32500 35596 ft 524 kts 123°
2026-04-25 04:32 31.62955 -115.28543 35938 ft 529 kts 114°
2026-04-25 04:32 31.61813 -115.24427 36178 ft 531 kts 113°
2026-04-25 04:33 31.60684 -115.20354 36415 ft 532 kts 113°
2026-04-25 04:33 31.59534 -115.16233 36685 ft 532 kts 113°
2026-04-25 04:33 31.58383 -115.12117 36946 ft 532 kts 114°
2026-04-25 04:33 31.57228 -115.07994 37182 ft 532 kts 114°
2026-04-25 04:34 31.56074 -115.03876 37418 ft 532 kts 114°
2026-04-25 04:34 31.54918 -114.99758 37648 ft 533 kts 114°
2026-04-25 04:34 31.53755 -114.95619 37813 ft 534 kts 114°
2026-04-25 04:35 31.51422 -114.87344 37814 ft 539 kts 114°
2026-04-25 04:35 31.49036 -114.78921 37813 ft 549 kts 114°
2026-04-25 04:36 31.46614 -114.70386 37815 ft 555 kts 114°
2026-04-25 04:36 31.44172 -114.61804 37816 ft 556 kts 114°
2026-04-25 04:37 31.41725 -114.53228 37808 ft 555 kts 114°
2026-04-25 04:37 31.39270 -114.44653 37810 ft 555 kts 114°
2026-04-25 04:38 31.36808 -114.36077 37823 ft 557 kts 114°
2026-04-25 04:38 31.34333 -114.27482 37809 ft 557 kts 114°
2026-04-25 04:39 31.31854 -114.18892 37817 ft 557 kts 114°
2026-04-25 04:39 31.29369 -114.10312 37810 ft 556 kts 114°
2026-04-25 04:40 31.26879 -114.01736 37814 ft 557 kts 114°
2026-04-25 04:40 31.24384 -113.93167 37815 ft 557 kts 114°
2026-04-25 04:41 31.21883 -113.84599 37816 ft 557 kts 114°
2026-04-25 04:41 31.19373 -113.76024 37816 ft 557 kts 114°
2026-04-25 04:42 31.16861 -113.67467 37816 ft 557 kts 114°
2026-04-25 04:42 31.14344 -113.58916 37821 ft 557 kts 114°
2026-04-25 04:43 31.11820 -113.50366 37821 ft 557 kts 114°
2026-04-25 04:43 31.09304 -113.41867 37832 ft 557 kts 114°
2026-04-25 04:44 31.06764 -113.33311 37828 ft 558 kts 114°
2026-04-25 04:44 31.04219 -113.24759 37828 ft 558 kts 114°
2026-04-25 04:45 31.01669 -113.16217 37831 ft 558 kts 114°
2026-04-25 04:45 30.99114 -113.07681 37830 ft 557 kts 114°
2026-04-25 04:46 30.96552 -112.99144 37834 ft 558 kts 114°
2026-04-25 04:46 30.93986 -112.90618 37838 ft 558 kts 114°
2026-04-25 04:47 30.91416 -112.82100 37838 ft 557 kts 114°
2026-04-25 04:47 30.88837 -112.73578 37836 ft 558 kts 114°
2026-04-25 04:48 30.86251 -112.65052 37838 ft 558 kts 114°
2026-04-25 04:48 30.83662 -112.56541 37813 ft 557 kts 114°
2026-04-25 04:49 30.81070 -112.48041 37840 ft 557 kts 114°
2026-04-25 04:49 30.78470 -112.39543 37843 ft 558 kts 114°
2026-04-25 04:50 30.75865 -112.31044 37824 ft 558 kts 114°
2026-04-25 04:50 30.73252 -112.22547 37829 ft 558 kts 114°
2026-04-25 04:51 30.70637 -112.14062 37844 ft 558 kts 114°
2026-04-25 04:51 30.68029 -112.05628 37836 ft 559 kts 114°
2026-04-25 04:52 30.65395 -111.97150 37831 ft 557 kts 114°
2026-04-25 04:52 30.62770 -111.88687 37832 ft 557 kts 114°
2026-04-25 04:53 30.60134 -111.80219 37832 ft 557 kts 114°
2026-04-25 04:53 30.57486 -111.71740 37827 ft 559 kts 114°
2026-04-25 04:54 30.54836 -111.63276 37830 ft 558 kts 115°
2026-04-25 04:54 30.52198 -111.54875 37836 ft 558 kts 115°
2026-04-25 04:55 30.49517 -111.46356 37828 ft 556 kts 115°
2026-04-25 04:55 30.46855 -111.37925 37831 ft 557 kts 115°
2026-04-25 04:56 30.44192 -111.29509 37832 ft 556 kts 115°
2026-04-25 04:56 30.41523 -111.21096 37829 ft 556 kts 115°
2026-04-25 04:57 30.39303 -111.14116 37835 ft 556 kts 115°
2026-04-25 04:57 30.36622 -111.05705 37829 ft 557 kts 115°
2026-04-25 04:58 30.33499 -110.95934 37790 ft 556 kts 115°
2026-04-25 04:58 30.30818 -110.87566 37831 ft 554 kts 115°
2026-04-25 04:59 30.28566 -110.80561 37846 ft 555 kts 115°
2026-04-25 04:59 30.25872 -110.72198 37854 ft 555 kts 115°
2026-04-25 05:00 30.23175 -110.63838 37852 ft 555 kts 115°
2026-04-25 05:00 30.20471 -110.55480 37863 ft 555 kts 115°
2026-04-25 05:01 30.17776 -110.47175 37875 ft 555 kts 115°
2026-04-25 05:01 30.15039 -110.38764 37861 ft 555 kts 115°
2026-04-25 05:02 30.12317 -110.30413 37870 ft 555 kts 115°
2026-04-25 05:02 30.09592 -110.22073 37867 ft 555 kts 115°
2026-04-25 05:03 30.06860 -110.13737 37858 ft 555 kts 115°
2026-04-25 05:03 30.04111 -110.05374 37866 ft 557 kts 115°
2026-04-25 05:04 30.01376 -109.97068 37873 ft 558 kts 115°
2026-04-25 05:04 29.98618 -109.88712 37868 ft 558 kts 115°
2026-04-25 05:05 29.95860 -109.80374 37874 ft 555 kts 115°
2026-04-25 05:05 29.93096 -109.72045 37876 ft 556 kts 115°
2026-04-25 05:06 29.90328 -109.63720 37870 ft 556 kts 115°
2026-04-25 05:06 29.87554 -109.55399 37872 ft 556 kts 115°
2026-04-25 05:07 29.84776 -109.47085 37873 ft 556 kts 115°
2026-04-25 05:07 29.81990 -109.38769 37881 ft 556 kts 115°
2026-04-25 05:08 29.79202 -109.30462 37836 ft 556 kts 115°
2026-04-25 05:08 29.76417 -109.22189 37889 ft 554 kts 115°
2026-04-25 05:09 29.73625 -109.13919 37890 ft 555 kts 115°
2026-04-25 05:09 29.70833 -109.05670 37896 ft 553 kts 115°
2026-04-25 05:10 29.68054 -108.97470 37922 ft 554 kts 115°
2026-04-25 05:10 29.65254 -108.89230 37914 ft 552 kts 116°
2026-04-25 05:11 29.62452 -108.81010 37934 ft 553 kts 115°
2026-04-25 05:11 29.59647 -108.72788 37895 ft 550 kts 115°
2026-04-25 05:12 29.55450 -108.60512 37962 ft 551 kts 115°
2026-04-25 05:12 29.52639 -108.52312 37977 ft 553 kts 115°
2026-04-25 05:13 29.49933 -108.44062 37980 ft 551 kts 112°
2026-04-25 05:13 29.47450 -108.35722 37990 ft 552 kts 112°
2026-04-25 05:14 29.44939 -108.27403 38001 ft 552 kts 112°
2026-04-25 05:15 29.41123 -108.14944 37994 ft 552 kts 112°
2026-04-25 05:15 29.38573 -108.06645 38000 ft 551 kts 112°
2026-04-25 05:16 29.36019 -107.98354 37990 ft 551 kts 112°
2026-04-25 05:16 29.33459 -107.90067 37990 ft 551 kts 112°
2026-04-25 05:17 29.30894 -107.81783 37986 ft 551 kts 112°
2026-04-25 05:17 29.28327 -107.73511 38002 ft 552 kts 113°
2026-04-25 05:18 29.25738 -107.65195 37974 ft 554 kts 113°
2026-04-25 05:18 29.23150 -107.56896 37956 ft 554 kts 113°
2026-04-25 05:19 29.20549 -107.48587 37951 ft 552 kts 113°
2026-04-25 05:19 29.17958 -107.40320 37943 ft 552 kts 113°
2026-04-25 05:20 29.15370 -107.32080 37928 ft 555 kts 113°
2026-04-25 05:20 29.12757 -107.23785 37935 ft 555 kts 113°
2026-04-25 05:21 29.10138 -107.15494 37922 ft 555 kts 113°
2026-04-25 05:21 29.07511 -107.07197 37922 ft 554 kts 113°
2026-04-25 05:22 29.04878 -106.98905 37916 ft 557 kts 113°
2026-04-25 05:22 29.02234 -106.90594 37880 ft 555 kts 113°
2026-04-25 05:23 28.99603 -106.82343 37911 ft 553 kts 113°
2026-04-25 05:23 28.96957 -106.74071 37899 ft 554 kts 113°
2026-04-25 05:24 28.94309 -106.65812 37900 ft 556 kts 113°
2026-04-25 05:24 28.91647 -106.57524 37878 ft 555 kts 113°
2026-04-25 05:25 28.88977 -106.49252 37875 ft 555 kts 114°
2026-04-25 05:25 28.86307 -106.40987 37851 ft 556 kts 113°
2026-04-25 05:26 28.83636 -106.32710 37821 ft 557 kts 113°
2026-04-25 05:26 28.80948 -106.24412 37818 ft 556 kts 114°
2026-04-25 05:27 28.78258 -106.16146 37789 ft 556 kts 114°
2026-04-25 05:27 28.75577 -106.07925 37788 ft 557 kts 114°
2026-04-25 05:28 28.72878 -105.99659 37773 ft 556 kts 114°
2026-04-25 05:28 28.69998 -105.91509 37761 ft 554 kts 116°
2026-04-25 05:29 28.67012 -105.83429 37763 ft 553 kts 116°
2026-04-25 05:29 28.64026 -105.75351 37758 ft 554 kts 116°
2026-04-25 05:30 28.61026 -105.67280 37745 ft 553 kts 116°
2026-04-25 05:30 28.58024 -105.59231 37762 ft 553 kts 116°
2026-04-25 05:31 28.55017 -105.51186 37765 ft 553 kts 116°
2026-04-25 05:31 28.52003 -105.43144 37767 ft 552 kts 116°
2026-04-25 05:32 28.48984 -105.35105 37797 ft 552 kts 116°
2026-04-25 05:32 28.45961 -105.27076 37770 ft 552 kts 116°
2026-04-25 05:33 28.42957 -105.19116 37794 ft 552 kts 116°
2026-04-25 05:33 28.39927 -105.11098 37782 ft 552 kts 116°
2026-04-25 05:34 28.36900 -105.03107 37793 ft 551 kts 116°
2026-04-25 05:34 28.33864 -104.95109 37795 ft 551 kts 116°
2026-04-25 05:35 28.30824 -104.87119 37836 ft 551 kts 116°
2026-04-25 05:35 28.27781 -104.79134 37829 ft 551 kts 116°
2026-04-25 05:36 28.24730 -104.71148 37837 ft 551 kts 116°
2026-04-25 05:36 28.21671 -104.63170 37841 ft 552 kts 116°
2026-04-25 05:37 28.18614 -104.55193 37838 ft 552 kts 116°
2026-04-25 05:37 28.15559 -104.47236 37839 ft 549 kts 116°
2026-04-25 05:38 28.12500 -104.39294 37842 ft 550 kts 116°
2026-04-25 05:38 28.09438 -104.31361 37841 ft 550 kts 116°
2026-04-25 05:39 28.06370 -104.23431 37840 ft 550 kts 117°
2026-04-25 05:39 28.03296 -104.15500 37840 ft 550 kts 116°
2026-04-25 05:40 28.00236 -104.07619 37840 ft 550 kts 117°
2026-04-25 05:40 27.97153 -103.99696 37839 ft 550 kts 117°
2026-04-25 05:41 27.94067 -103.91782 37828 ft 549 kts 117°
2026-04-25 05:41 27.90983 -103.83887 37834 ft 548 kts 117°
2026-04-25 05:42 27.87897 -103.76008 37830 ft 548 kts 117°
2026-04-25 05:42 27.84807 -103.68131 37835 ft 548 kts 117°
2026-04-25 05:43 27.81716 -103.60268 37827 ft 547 kts 117°
2026-04-25 05:43 27.78621 -103.52410 37827 ft 547 kts 117°
2026-04-25 05:44 27.75527 -103.44573 37818 ft 546 kts 117°
2026-04-25 05:44 27.72431 -103.36744 37818 ft 546 kts 117°
2026-04-25 05:45 27.69347 -103.28957 37815 ft 542 kts 117°
2026-04-25 05:45 27.66780 -103.22494 37816 ft 543 kts 117°
2026-04-25 05:46 27.63690 -103.14726 37816 ft 543 kts 117°
2026-04-25 05:46 27.60596 -103.06964 37812 ft 544 kts 117°
2026-04-25 05:47 27.57490 -102.99192 37826 ft 543 kts 117°
2026-04-25 05:47 27.54387 -102.91427 37838 ft 543 kts 117°
2026-04-25 05:48 27.51278 -102.83667 37838 ft 543 kts 117°
2026-04-25 05:48 27.48165 -102.75917 37870 ft 544 kts 117°
2026-04-25 05:49 27.45030 -102.68131 37854 ft 545 kts 117°
2026-04-25 05:49 27.41899 -102.60364 37863 ft 545 kts 117°
2026-04-25 05:50 27.38783 -102.52648 37867 ft 545 kts 117°
2026-04-25 05:50 27.35640 -102.44881 37870 ft 544 kts 117°
2026-04-25 05:51 27.32497 -102.37131 37870 ft 544 kts 117°
2026-04-25 05:51 27.29351 -102.29387 37870 ft 544 kts 117°
2026-04-25 05:52 27.26204 -102.21655 37866 ft 544 kts 117°
2026-04-25 05:52 27.23050 -102.13922 37862 ft 544 kts 117°
2026-04-25 05:53 27.19894 -102.06198 37863 ft 543 kts 117°
2026-04-25 05:53 27.16736 -101.98479 37851 ft 543 kts 117°
2026-04-25 05:54 27.13575 -101.90777 37847 ft 543 kts 117°
2026-04-25 05:54 27.08829 -101.79230 37838 ft 544 kts 117°
2026-04-25 05:55 27.05655 -101.71528 37835 ft 543 kts 117°
2026-04-25 05:55 27.02475 -101.63824 37831 ft 546 kts 117°
2026-04-25 05:56 26.99283 -101.56108 37802 ft 545 kts 117°
2026-04-25 05:56 26.96093 -101.48402 37828 ft 545 kts 117°
2026-04-25 05:57 26.93351 -101.40454 37822 ft 547 kts 111°
2026-04-25 05:57 26.90767 -101.32434 37824 ft 547 kts 112°
2026-04-25 05:58 26.88230 -101.24623 37834 ft 525 kts 112°
2026-04-25 05:58 26.85710 -101.16917 37838 ft 527 kts 112°
2026-04-25 05:59 26.83198 -101.09260 37836 ft 527 kts 112°
2026-04-25 05:59 26.81919 -101.05366 37717 ft 525 kts 112°
2026-04-25 05:59 26.80676 -101.01581 37451 ft 525 kts 112°
2026-04-25 06:00 26.79412 -100.97741 36956 ft 527 kts 112°
2026-04-25 06:00 26.78142 -100.93884 36307 ft 527 kts 112°
2026-04-25 06:00 26.76872 -100.90033 35518 ft 529 kts 112°
2026-04-25 06:00 26.75593 -100.86159 34661 ft 532 kts 112°
2026-04-25 06:01 26.74308 -100.82267 33781 ft 534 kts 112°
2026-04-25 06:01 26.73016 -100.78361 32829 ft 535 kts 112°
2026-04-25 06:01 26.71725 -100.74465 31871 ft 536 kts 112°
2026-04-25 06:01 26.70428 -100.70551 30886 ft 536 kts 112°
2026-04-25 06:02 26.69131 -100.66642 29939 ft 537 kts 112°
2026-04-25 06:02 26.67831 -100.62731 28766 ft 534 kts 111°
2026-04-25 06:02 26.66544 -100.58862 27714 ft 525 kts 111°
2026-04-25 06:02 26.65294 -100.55104 27041 ft 508 kts 111°
2026-04-25 06:03 26.64078 -100.51451 26286 ft 496 kts 111°
2026-04-25 06:03 26.62887 -100.47880 25609 ft 483 kts 111°
2026-04-25 06:03 26.61723 -100.44391 24927 ft 473 kts 111°
2026-04-25 06:03 26.60581 -100.40975 24247 ft 464 kts 111°
2026-04-25 06:04 26.59460 -100.37623 23562 ft 455 kts 111°
2026-04-25 06:04 26.58359 -100.34331 22778 ft 448 kts 111°
2026-04-25 06:04 26.57284 -100.31121 22092 ft 437 kts 111°
2026-04-25 06:04 26.56231 -100.27976 21414 ft 428 kts 111°
2026-04-25 06:05 26.55170 -100.24905 20759 ft 419 kts 116°
2026-04-25 06:05 26.53700 -100.22154 20083 ft 407 kts 130°
2026-04-25 06:05 26.51774 -100.19895 19427 ft 396 kts 144°
2026-04-25 06:05 26.49588 -100.18082 18788 ft 394 kts 147°
2026-04-25 06:06 26.47315 -100.16232 18300 ft 413 kts 147°
2026-04-25 06:06 26.44994 -100.14327 17990 ft 412 kts 147°
2026-04-25 06:06 26.42708 -100.12440 17827 ft 405 kts 147°
2026-04-25 06:06 26.40472 -100.10594 17726 ft 397 kts 147°
2026-04-25 06:07 26.38253 -100.08767 17628 ft 398 kts 147°
2026-04-25 06:07 26.36017 -100.06931 17522 ft 399 kts 147°
2026-04-25 06:07 26.33788 -100.05100 17415 ft 398 kts 147°
2026-04-25 06:07 26.31592 -100.03299 17313 ft 397 kts 147°
2026-04-25 06:08 26.29340 -100.01451 17207 ft 396 kts 147°
2026-04-25 06:08 26.27129 -99.99637 17100 ft 395 kts 147°
2026-04-25 06:08 26.24927 -99.97803 16996 ft 397 kts 147°
2026-04-25 06:08 26.22705 -99.95971 16948 ft 394 kts 147°
2026-04-25 06:09 26.20504 -99.94189 16942 ft 389 kts 148°
2026-04-25 06:09 26.18308 -99.92390 16971 ft 398 kts 144°
2026-04-25 06:09 26.16128 -99.90502 16948 ft 393 kts 147°
2026-04-25 06:09 26.14001 -99.88664 16891 ft 390 kts 144°
2026-04-25 06:10 26.11824 -99.86814 16949 ft 393 kts 149°
2026-04-25 06:10 26.09573 -99.85108 16950 ft 391 kts 150°
2026-04-25 06:10 26.07285 -99.83369 16957 ft 395 kts 149°
2026-04-25 06:10 26.05069 -99.81624 16950 ft 397 kts 148°
2026-04-25 06:11 26.02828 -99.79828 16943 ft 396 kts 148°
2026-04-25 06:11 26.00599 -99.78027 16940 ft 396 kts 147°
2026-04-25 06:11 25.98347 -99.76196 16941 ft 397 kts 147°
2026-04-25 06:11 25.96151 -99.74405 16947 ft 396 kts 147°
2026-04-25 06:12 25.93933 -99.72595 16944 ft 396 kts 147°
2026-04-25 06:12 25.91710 -99.70782 16938 ft 395 kts 147°
2026-04-25 06:12 25.89502 -99.68986 16937 ft 394 kts 148°
2026-04-25 06:12 25.87110 -99.67568 16902 ft 383 kts 166°
2026-04-25 06:13 25.84592 -99.67095 16780 ft 356 kts 187°
2026-04-25 06:13 25.82273 -99.67588 16539 ft 326 kts 210°
2026-04-25 06:13 25.80463 -99.68911 16443 ft 306 kts 231°
2026-04-25 06:14 25.79021 -99.73117 16333 ft 295 kts 277°
2026-04-25 06:14 25.79556 -99.75294 16265 ft 293 kts 293°
2026-04-25 06:14 25.80505 -99.77301 16140 ft 295 kts 300°
2026-04-25 06:14 25.81608 -99.79218 16005 ft 294 kts 302°
2026-04-25 06:15 25.82748 -99.81090 15888 ft 293 kts 302°
2026-04-25 06:15 25.83878 -99.82973 15612 ft 292 kts 301°
2026-04-25 06:15 25.84980 -99.84860 15411 ft 292 kts 300°
2026-04-25 06:15 25.86073 -99.86762 15206 ft 292 kts 300°
2026-04-25 06:16 25.87162 -99.88668 14993 ft 291 kts 300°
2026-04-25 06:16 25.88240 -99.90559 14849 ft 286 kts 300°
2026-04-25 06:16 25.89283 -99.92388 14766 ft 275 kts 300°
2026-04-25 06:16 25.90284 -99.94141 14680 ft 262 kts 300°
2026-04-25 06:17 25.91242 -99.95821 14345 ft 256 kts 299°
2026-04-25 06:17 25.92181 -99.97469 14087 ft 247 kts 299°
2026-04-25 06:17 25.93088 -99.99063 13966 ft 246 kts 299°
2026-04-25 06:17 25.94009 -100.00683 13837 ft 248 kts 299°
2026-04-25 06:18 25.94936 -100.02309 13488 ft 250 kts 299°
2026-04-25 06:18 25.95866 -100.03944 12990 ft 251 kts 300°
2026-04-25 06:18 25.96796 -100.05578 12619 ft 247 kts 300°
2026-04-25 06:18 25.97680 -100.07129 12465 ft 234 kts 300°
2026-04-25 06:19 25.98541 -100.08635 12360 ft 220 kts 300°
2026-04-25 06:19 25.99338 -100.10032 12263 ft 207 kts 300°
2026-04-25 06:19 26.00088 -100.11347 12149 ft 197 kts 300°
2026-04-25 06:19 26.00813 -100.12624 11854 ft 195 kts 300°
2026-04-25 06:20 26.01537 -100.13903 11512 ft 196 kts 300°
2026-04-25 06:20 26.02251 -100.15160 11298 ft 186 kts 300°
2026-04-25 06:20 26.02945 -100.16382 10697 ft 192 kts 301°
2026-04-25 06:20 26.03666 -100.17658 10077 ft 198 kts 302°
2026-04-25 06:21 26.04405 -100.18962 9507 ft 199 kts 302°
2026-04-25 06:21 26.04899 -100.20379 8968 ft 200 kts 276°
2026-04-25 06:21 26.04600 -100.21884 8434 ft 206 kts 242°
2026-04-25 06:21 26.03550 -100.22984 7915 ft 212 kts 214°
2026-04-25 06:22 26.02310 -100.23796 7526 ft 206 kts 212°
2026-04-25 06:22 26.01059 -100.24617 7378 ft 209 kts 212°
2026-04-25 06:22 25.99809 -100.25447 7222 ft 208 kts 212°
2026-04-25 06:22 25.98568 -100.26278 7061 ft 208 kts 212°
2026-04-25 06:23 25.97353 -100.27097 6923 ft 206 kts 212°
2026-04-25 06:23 25.96140 -100.27916 6624 ft 202 kts 211°
2026-04-25 06:23 25.94939 -100.28729 6165 ft 202 kts 211°
2026-04-25 06:23 25.93749 -100.29536 5775 ft 197 kts 210°
2026-04-25 06:24 25.92571 -100.30336 5471 ft 200 kts 209°
2026-04-25 06:24 25.91386 -100.31131 5150 ft 196 kts 205°
2026-04-25 06:24 25.90102 -100.31414 4877 ft 182 kts 168°
2026-04-25 06:24 25.89060 -100.30889 4796 ft 153 kts 140°
2026-04-25 06:25 25.88423 -100.29967 4391 ft 152 kts 120°
2026-04-25 06:25 25.87865 -100.28915 4243 ft 161 kts 121°
2026-04-25 06:25 25.87290 -100.27860 4059 ft 156 kts 121°
2026-04-25 06:25 25.86746 -100.26874 3848 ft 146 kts 121°
2026-04-25 06:26 25.86213 -100.25912 3718 ft 147 kts 121°
2026-04-25 06:26 25.85676 -100.24940 3706 ft 148 kts 121°
2026-04-25 06:26 25.85139 -100.23969 3675 ft 146 kts 121°
2026-04-25 06:26 25.84603 -100.23005 3469 ft 148 kts 121°
2026-04-25 06:27 25.84054 -100.22027 3222 ft 151 kts 121°
2026-04-25 06:27 25.83510 -100.21038 3007 ft 151 kts 120°
2026-04-25 06:27 25.82972 -100.20027 2778 ft 151 kts 120°
2026-04-25 06:27 25.82446 -100.19065 2698 ft 142 kts 121°
2026-04-25 06:28 25.81932 -100.18144 2552 ft 140 kts 121°
2026-04-25 06:28 25.81416 -100.17220 2352 ft 142 kts 121°
2026-04-25 06:28 25.80922 -100.16296 2247 ft 135 kts 120°
2026-04-25 06:28 25.80461 -100.15430 2149 ft 127 kts 121°
2026-04-25 06:29 25.80011 -100.14606 1958 ft 128 kts 121°
2026-04-25 06:29 25.79536 -100.13750 1799 ft 128 kts 121°
2026-04-25 06:29 25.79061 -100.12915 1609 ft 130 kts 118°
2026-04-25 06:29 25.78607 -100.12061 1414 ft 130 kts 119°
2026-04-25 06:30 25.78150 -100.11223 1288 ft 120 kts 121°
2026-04-25 06:30 25.77818 -100.10627 1280 ft 46 kts 121°
2026-04-25 06:30 25.77652 -100.10327 1277 ft 44 kts 123°
2026-04-25 06:30 25.77530 -100.10104 1274 ft 30 kts 121°
2026-04-25 06:31 25.77424 -100.09908 1271 ft 28 kts 123°
2026-04-25 06:31 25.77329 -100.09740 1268 ft 14 kts 121°
2026-04-25 06:31 25.77278 -100.09689 1266 ft 13 kts 176°
2026-04-25 06:31 25.77187 -100.09740 1269 ft 16 kts 212°
2026-04-25 06:32 25.77144 -100.09792 1267 ft 14 kts 259°
2026-04-25 06:32 25.77202 -100.09917 1269 ft 15 kts 302°
2026-04-25 06:32 25.77241 -100.09987 1271 ft 17 kts 302°
2026-04-25 06:32 25.77309 -100.10106 1273 ft 20 kts 302°
2026-04-25 06:33 25.77381 -100.10239 1275 ft 21 kts 301°
2026-04-25 06:33 25.77455 -100.10373 1276 ft 21 kts 301°
2026-04-25 06:33 25.77534 -100.10519 1278 ft 23 kts 301°
2026-04-25 06:33 25.77598 -100.10635 1278 ft 11 kts 302°
2026-04-25 06:34 25.77646 -100.10721 1279 ft 15 kts 302°
2026-04-25 06:34 25.77709 -100.10832 1279 ft 19 kts 302°
2026-04-25 06:34 25.77783 -100.10964 1280 ft 15 kts 299°
2026-04-25 06:34 25.77835 -100.11077 1280 ft 18 kts 296°
2026-04-25 06:35 25.77901 -100.11186 1281 ft 11 kts 306°
2026-04-25 06:35 25.77941 -100.11259 1281 ft 11 kts 300°
2026-04-25 06:35 25.77928 -100.11296 1282 ft 6 kts 213°
2026-04-25 06:35 25.77886 -100.11326 1280 ft 0 kts 212°